Indian Springs, NV

9:00 PM PST on December 06, 2019 (GMT -0800)
Indian Springs Air Force Auxiliary

Weather History for KINS - November, 2019

Change the Weather History Date:

Thursday, November 14, 2019

  Actual Average (WUND) Record (WUND)
Temperature  
Mean Temperature 54 °F -  
Max Temperature 69 °F - - (-1)
Min Temperature 40 °F - - (-1)
Degree Days  
Heating Degree Days 10    
Growing Degree Days 4 (Base 50)    
Moisture  
Dew Point 16 °F    
Average Humidity 23    
Maximum Humidity 34    
Minimum Humidity 14    
Precipitation  
Precipitation 0.00 in - - ()
Sea Level Pressure  
Sea Level Pressure 30.04 in    
Wind  
Wind Speed 1 mph ()    
Max Wind Speed 10 mph    
Max Gust Speed -    
Visibility 10.0 miles    
Events      
Averages and records for this station are not official NWS values.
T = Trace of Precipitation, MM = Missing Value Source: Averaged Metar Reports

Daily Weather History Graph

Daily Weather History Graph

Search for Another Location

Airport or City:

Astronomy

Nov. 14, 2019 Rise Set
Actual Time 6:19 AM PST 4:34 PM PST
Civil Twilight 5:51 AM PST 5:02 PM PST
Nautical Twilight 5:20 AM PST 5:33 PM PST
Astronomical Twilight 4:50 AM PST 6:03 PM PST
Moon 6:25 PM PST (11/14) 8:17 AM PST (11/14)
Length of Visible Light 11h 10m
Length of Day
10h 15m
Waning Gibbous, 95% of the Moon is Illuminated
Nov 14
Waning Gibbous
Nov 19
Last Quarter
Nov 26
New
Dec 3
First Quarter
Dec 11
Full

Hourly Weather History & Observations

Time (PST) Temp. Dew Point Humidity Pressure Visibility Wind Dir Wind Speed Gust Speed Precip Events Conditions
12:58 AM 43.5 °F 12.6 °F 29% 29.99 in 10.0 mi Calm Calm - N/A   Clear
1:58 AM 42.3 °F 12.2 °F 29% 29.99 in 10.0 mi Calm Calm - N/A   Clear
2:58 AM 41.2 °F 14.9 °F 34% 30.00 in 10.0 mi Calm Calm - N/A   Clear
3:58 AM 40.8 °F 11.8 °F 31% 30.02 in 10.0 mi Calm Calm - N/A   Clear
4:58 AM 41.7 °F 11.8 °F 30% 30.02 in 10.0 mi Calm Calm - N/A   Partly Cloudy
5:58 AM 41.2 °F 12.0 °F 30% 30.04 in 10.0 mi Calm Calm - N/A   Partly Cloudy
6:58 AM 41.9 °F 11.1 °F 28% 30.05 in 10.0 mi Calm Calm - N/A   Partly Cloudy
7:58 AM 44.2 °F 13.1 °F 28% 30.08 in 10.0 mi Calm Calm - N/A   Partly Cloudy
8:58 AM 49.1 °F 14.7 °F 25% 30.11 in 10.0 mi Calm Calm - N/A   Partly Cloudy
9:58 AM 53.2 °F 16.3 °F 23% 30.10 in 10.0 mi Calm Calm - N/A   Partly Cloudy
10:58 AM 56.5 °F 17.1 °F 21% 30.08 in 10.0 mi Calm Calm - N/A   Scattered Clouds
11:58 AM 61.9 °F 18.0 °F 18% 30.05 in 10.0 mi Calm Calm - N/A   Partly Cloudy
12:58 PM 65.7 °F 16.7 °F 15% 30.02 in 10.0 mi East 5.8 mph - N/A   Scattered Clouds
1:58 PM 68.5 °F 17.4 °F 14% 30.01 in 10.0 mi ENE 3.5 mph - N/A   Partly Cloudy
2:58 PM 69.3 °F 18.0 °F 14% 30.00 in 10.0 mi ENE 10.4 mph - N/A   Partly Cloudy
3:58 PM 66.9 °F 17.8 °F 15% 30.00 in 10.0 mi ENE 8.1 mph - N/A   Clear
4:58 PM 63.3 °F 17.8 °F 17% 30.02 in 10.0 mi ENE 8.1 mph - N/A   Clear
5:58 PM 61.3 °F 18.7 °F 19% 30.03 in 10.0 mi Calm Calm - N/A   Mostly Cloudy
6:58 PM 61.3 °F 17.4 °F 18% 30.04 in 10.0 mi Calm Calm - N/A   Overcast
7:58 PM 55.9 °F 16.5 °F 21% 30.06 in 10.0 mi West 4.6 mph - N/A   Mostly Cloudy
8:58 PM 56.7 °F 17.1 °F 21% 30.06 in 10.0 mi West 3.5 mph - N/A   Clear
9:58 PM 53.4 °F 21.2 °F 28% 30.06 in 10.0 mi Calm Calm - N/A   Clear
10:58 PM 51.4 °F 15.8 °F 24% 30.06 in 10.0 mi SW 3.5 mph - N/A   Partly Cloudy
11:58 PM 50.2 °F 17.4 °F 27% 30.06 in 10.0 mi West 3.5 mph - N/A   Partly Cloudy